Hourly Weather Roundup
Issued by NWS Central Illinois

Home | Current Version | Previous Version | Graphics & Text | Print | Product List | Glossary On
Versions: 1 2 3 4 5 6 7 8 9 10 11 12 13 14 15 16 17 18 19 20 21 22 23 24 25 26 27 28 29 30 31 32 33 34 35 36 37 38 39 40 41 42 43 44 45 46 47 48 49 50
000
NZUS43 KILX 311810
HWRILX

AREA WEATHER ROUNDUP
NATIONAL WEATHER SERVICE, LINCOLN IL
1200 PM CST SAT JAN 31 2015


CITY           SKY/WX    TMP DP  RH WIND       PRES   REMARKS
BLOOMINGTON    CLOUDY    37  28  70 SW12      30.24F WCI  29
6HR MIN TEMP:  25; 6HR MAX TEMP:  37;

CHAMPAIGN      CLOUDY    37  28  70 SW13      30.27F WCI  29
6HR MIN TEMP:  25; 6HR MAX TEMP:  37;

DECATUR        CLOUDY    38  27  64 SW12      30.28F WCI  30
6HR MIN TEMP:  27; 6HR MAX TEMP:  38;

FLORA          CLOUDY    38  27  65 S6        30.33F WCI  33
6HR MIN TEMP:  25; 6HR MAX TEMP:  38;

GALESBURG      CLOUDY    36  29  76 SW8       30.23F WCI  30
JACKSONVILLE   CLOUDY    39  26  58 SW8       30.27F WCI  33
6HR MIN TEMP:  31; 6HR MAX TEMP:  39;

LACON          CLOUDY    37  26  62 SW7       30.22F WCI  32
6HR MIN TEMP:  25; 6HR MAX TEMP:  37;

LAWRENCEVILLE  CLOUDY    39  25  57 SW9       30.35F WCI  33
6HR MIN TEMP:  22; 6HR MAX TEMP:  39;

LITCHFIELD     CLOUDY    35  29  76 S8        30.30F WCI  29
$$


CITY           SKY/WX    TMP DP  RH WIND       PRES   REMARKS
LINCOLN        CLOUDY    40  26  58 SW5       30.27F
6HR MIN TEMP:  28; 6HR MAX TEMP:  40;

MACOMB         LGT RAIN  35  31  83 SW7       30.26F WCI  30
MATTOON        CLOUDY    35  25  66 SW10      30.29F WCI  27
6HR MIN TEMP:  27; 6HR MAX TEMP:  36;

MT CARMEL AP   CLOUDY    39  27  60 SW7       30.34F WCI  34
OLNEY-NOBLE AP CLOUDY    36  27  69 CALM      30.33F
PARIS          CLOUDY    38  29  71 SW13      30.30F WCI  30
6HR MIN TEMP:  24; 6HR MAX TEMP:  38;

PEORIA         CLOUDY    39  25  57 SW7       30.25F WCI  34
6HR MIN TEMP:  26; 6HR MAX TEMP:  39;

PONTIAC        CLOUDY    37  29  73 SW8       30.23F WCI  30
RANTOUL        CLOUDY    38  30  74 SW14      30.26F WCI  29
6HR MIN TEMP:  27; 6HR MAX TEMP:  38;

ROBINSON       CLOUDY    38  26  61 SW8       30.35F WCI  32
6HR MIN TEMP:  23; 6HR MAX TEMP:  38;

SPRINGFIELD    CLOUDY    38  26  62 SW7       30.28F WCI  33
6HR MIN TEMP:  29; 6HR MAX TEMP:  38;

TAYLORVILLE    CLOUDY    34  28  80 SW9       30.29F WCI  26
$$

...REGIONAL REPORTS...


CITY           SKY/WX    TMP DP  RH WIND       PRES   REMARKS
CHICAGO O`HARE PTSUNNY   35  23  61 W13       30.18F WCI  26
KANKAKEE       PTSUNNY   37  29  73 SW10      30.24F WCI  29
MOLINE         CLOUDY    37  28  70 SW7       30.20F WCI  32
MOUNT VERNON   CLOUDY    39  27  60 SW10      30.34F WCI  32
PITTSFIELD     CLOUDY    38  25  59 SW7       30.28S WCI  33
QUINCY         LGT RAIN  35  27  72 SW12      30.26F WCI  27
ROCKFORD       CLOUDY    34  23  64 W7        30.20F WCI  28
$$


CITY           SKY/WX    TMP DP  RH WIND       PRES   REMARKS
BURLINGTON     CLOUDY    35  28  75 SW8       30.23F WCI  29
CEDAR RAPIDS   CLOUDY    39  33  79 W8        30.16F WCI  33
DES MOINES     DRIZZLE   39  34  82 SW10      30.16F WCI  32
KIRKSVILLE     LGT RAIN  34  34 100 S6        30.23F FOG     WCI  29
OTTUMWA        CLOUDY    39  33  79 SW10      30.20F WCI  32
ST LOUIS       CLOUDY    44  23  43 SW6       30.30F
$$


CITY           SKY/WX    TMP DP  RH WIND       PRES   REMARKS
TERRE HAUTE    CLOUDY    38  24  57 SW12      30.32F WCI  30
EVANSVILLE     CLOUDY    40  23  50 CALM      30.36F
INDIANAPOLIS   CLOUDY    34  21  59 SW16      30.30F WCI  24
LAFAYETTE      PTSUNNY   36  24  62 SW13      30.27F WCI  27
MADISON        CLOUDY    33  20  58 NW7       30.17S WCI  27
MILWAUKEE      PTSUNNY   34  19  54 W9        30.17S WCI  27
$$




USA.gov is the U.S. government's official web portal to all federal, state and local government web resources and services.